Wind_Speed
14 14 14 14 14 13 13 13 13 12 12 12 12 12 12 12 11 11 10 10 10 9 9 9 8 8 8 8 8 8 7 7 7 7 6 5 4 5 5 4 4 4 3
16 16 16 16 15 15 14 15 15 14 14 14 14 14 14 14 13 13 12 12 12 11 11 11 10 10 9 9 9 9 8 8 8 8 7 7 6 6 6 5 5 5 5
18 17 17 17 17 16 16 16 16 16 16 16 16 16 16 16 15 15 15 15 14 14 14 13 12 12 11 11 11 10 10 10 9 9 9 9 8 8 8 7 6 6 6
19 19 19 19 18 18 18 18 17 17 17 17 17 18 18 17 17 17 16 16 16 16 16 15 15 14 13 13 13 12 12 12 11 11 11 10 10 10 10 9 8 8 8
19 20 20 20 20 19 19 19 19 19 19 19 18 19 19 19 19 19 18 18 17 17 17 17 17 16 16 15 15 14 14 14 14 13 12 12 12 12 11 11 11 10 10
19 20 20 20 20 20 20 20 20 20 20 20 19 20 20 20 20 20 20 20 19 19 19 19 19 18 18 17 17 16 16 16 16 15 15 14 13 13 13 13 13 12 12
20 20 20 21 21 22 21 21 21 21 22 21 20 20 21 21 21 21 21 20 21 21 21 20 21 20 20 20 19 19 18 18 18 18 17 16 16 16 16 16 15 14 14
22 22 22 22 22 22 22 22 22 23 23 23 22 22 22 22 22 22 22 21 22 22 22 22 22 22 22 21 21 21 21 20 20 20 19 19 18 18 18 18 18 17 16
23 24 24 24 23 23 23 23 24 24 24 24 24 24 23 23 23 23 23 23 23 23 24 24 24 24 24 24 24 24 23 22 22 22 22 21 21 20 20 20 20 19 18
25 25 25 25 25 24 24 24 24 25 25 25 25 25 25 25 25 25 25 25 25 25 25 25 26 26 26 26 27 26 26 25 24 25 25 24 24 23 23 22 22 22 21
27 27 27 27 26 26 26 26 26 25 26 26 26 26 26 26 27 27 27 28 28 28 28 28 28 28 28 28 28 28 28 28 28 27 27 26 26 25 25 25 25 24 24
29 29 29 29 29 28 28 28 27 27 27 27 27 28 28 28 29 29 30 30 30 30 30 30 30 30 30 30 30 30 31 31 31 31 30 29 28 28 27 27 27 26 26
31 31 30 30 30 30 30 29 29 29 29 29 29 29 30 30 30 31 32 33 32 32 32 32 32 33 33 32 32 32 33 33 33 33 32 32 31 31 30 29 29 28 28
32 32 32 31 31 32 31 31 31 31 31 31 31 31 31 32 32 33 34 34 34 34 34 34 34 34 35 34 34 34 34 34 35 35 35 34 33 33 32 32 30 30 29
33 33 33 33 33 32 33 33 33 34 33 33 33 33 33 33 33 34 34 35 36 36 36 36 36 36 36 37 37 37 37 37 37 37 37 36 36 35 34 34 33 32 32
34 34 34 35 35 35 35 35 35 35 35 35 35 35 34 34 34 35 35 36 36 37 38 38 38 38 39 39 39 39 39 39 38 38 39 38 38 37 37 36 35 35 34
35 36 36 36 37 37 37 36 37 36 36 36 36 36 36 36 36 36 37 37 38 38 38 39 38 39 40 40 40 41 41 41 41 40 40 41 40 39 39 39 38 38 37
36 36 37 37 38 38 38 38 38 38 38 38 38 38 38 38 38 38 38 39 39 39 39 40 39 40 40 41 41 41 42 42 42 42 42 42 42 41 41 41 41 40 40
38 38 38 38 39 39 40 40 40 40 40 40 40 40 40 40 40 40 40 40 40 40 40 40 41 41 41 41 42 42 42 43 43 43 44 44 44 44 44 43 43 43 42
39 39 39 39 39 40 41 42 42 42 42 42 41 41 42 41 41 41 41 41 41 41 41 41 42 43 43 43 43 43 44 44 45 45 45 46 46 46 45 45 45 44 44
40 40 40 40 40 41 42 43 43 43 43 43 43 44 43 43 43 43 43 43 43 43 43 43 43 43 44 45 44 45 45 46 46 46 47 47 48 47 47 47 46 46 45
39 40 40 40 41 41 42 43 43 44 45 44 45 44 45 45 44 45 45 45 45 45 45 45 45 45 45 45 46 46 47 46 47 47 48 48 49 49 49 49 48 48 47
40 40 41 41 42 42 43 44 44 44 45 46 46 46 46 46 47 47 46 46 47 47 47 47 46 46 46 46 47 47 47 47 47 48 49 49 50 50 51 51 50 49 48
40 40 40 41 42 43 44 45 45 45 45 47 47 48 48 48 48 47 47 47 47 48 47 47 47 47 47 47 47 47 47 48 48 48 49 50 50 51 52 52 51 50 50
41 41 42 42 43 44 45 45 46 47 47 47 49 50 49 49 49 49 49 48 48 48 48 48 48 48 48 47 47 47 48 48 48 49 49 49 50 51 52 53 52 51 51
43 43 43 44 44 45 46 46 47 48 49 48 49 49 50 50 50 50 51 50 50 50 49 49 49 50 50 49 49 48 48 49 49 49 49 49 50 50 51 52 53 52 52
Wind_Direction
236 238 238 238 239 238 239 240 243 245 246 249 251 252 251 251 251 251 251 250 250 251 252 252 250 247 243 238 237 237 237 237 239 237 235 232 228 223 221 214 213 214 212
239 240 239 239 241 241 243 243 244 244 246 249 250 251 251 250 251 251 251 250 252 253 253 252 251 250 247 243 244 245 243 242 241 242 239 236 235 234 233 228 230 230 230
240 240 240 239 241 243 243 243 243 244 245 248 249 251 251 251 252 253 252 251 252 252 253 253 252 252 251 250 248 247 248 246 246 245 243 241 239 239 239 238 239 240 241
240 240 241 242 243 244 243 244 245 246 247 248 250 251 251 251 252 253 254 254 254 255 254 254 254 252 252 253 253 252 253 253 251 248 245 244 243 242 242 243 244 246 247
243 242 242 244 245 245 246 246 247 248 248 250 252 252 251 252 253 252 253 254 255 254 253 253 254 253 253 254 253 253 255 257 254 250 248 246 245 246 246 247 248 250 252
245 245 244 243 244 245 247 248 247 247 248 250 251 252 252 253 254 254 253 254 254 254 253 252 254 254 254 254 253 254 254 255 254 252 250 248 247 248 249 250 252 254 255
246 247 246 246 245 246 248 250 251 250 249 252 251 252 252 252 253 253 253 253 253 254 254 254 254 254 254 255 255 254 255 255 254 252 252 251 249 249 250 252 253 255 256
246 247 248 248 248 249 251 253 253 254 254 255 255 255 254 254 254 252 253 253 254 254 254 255 255 255 255 254 254 256 257 257 255 254 253 253 252 250 250 252 253 254 255
248 249 250 251 251 251 251 253 254 255 255 256 256 256 256 255 255 255 255 254 254 255 256 255 256 257 256 255 256 257 258 257 257 256 255 252 252 251 251 251 253 254 254
250 251 251 252 252 252 252 253 254 255 256 257 257 257 256 255 256 257 257 256 256 256 256 256 256 258 258 257 257 257 258 258 257 257 256 255 252 252 251 252 252 253 255
251 251 252 253 254 254 254 254 255 255 256 257 258 257 257 257 257 257 258 258 258 258 257 257 258 259 259 258 258 258 258 258 258 258 258 257 255 253 252 252 252 253 254
250 251 253 253 253 254 254 254 255 256 257 258 258 258 258 259 259 258 259 259 259 259 259 258 259 258 258 258 258 258 259 258 259 259 258 257 257 256 254 253 253 254 254
250 251 252 253 253 253 253 255 256 256 257 258 258 258 259 260 260 260 259 259 259 259 259 260 260 259 259 259 258 258 258 258 259 259 258 257 256 257 257 255 254 254 254
251 252 252 253 253 254 254 254 256 257 257 258 258 259 259 260 261 261 261 260 260 260 260 260 261 262 261 260 259 259 259 259 260 259 259 258 257 257 257 256 256 254 255
252 253 253 252 253 254 254 254 256 258 258 258 258 259 259 260 261 262 262 261 260 260 261 261 261 262 262 261 261 261 260 260 260 259 258 258 257 256 256 256 255 256 255
252 252 252 252 253 254 255 255 256 258 258 259 260 260 260 261 263 264 263 262 262 262 263 264 263 262 262 262 262 262 261 260 260 259 258 257 256 256 256 255 255 256 256
252 252 252 253 254 254 254 255 256 257 258 259 260 261 261 262 263 264 264 263 263 263 263 265 264 263 263 263 263 263 262 261 259 259 258 257 257 257 256 256 255 256 256
253 254 253 254 255 255 255 255 256 257 258 260 261 262 262 263 264 264 263 263 263 263 264 265 264 264 264 264 263 263 263 262 261 260 259 258 257 257 257 256 256 256 257
254 255 255 255 255 256 256 256 257 258 259 260 261 263 263 263 263 263 263 263 263 263 264 264 264 264 264 264 264 264 263 263 262 261 260 258 257 257 257 257 256 256 257
254 255 256 256 256 256 257 257 257 258 260 261 262 263 264 264 264 265 264 263 263 263 264 264 264 264 265 265 265 265 264 263 262 261 261 259 258 257 257 257 257 256 256
254 255 256 256 256 256 257 257 258 258 260 261 262 263 263 264 264 265 265 265 264 264 264 263 263 265 266 266 265 265 265 264 263 262 261 260 258 257 257 257 257 256 256
255 255 256 257 257 257 257 257 258 259 260 261 261 262 263 264 265 266 266 265 264 263 264 264 264 265 266 267 266 266 265 264 263 262 261 260 258 257 256 256 256 256 256
255 256 257 257 258 258 258 258 258 259 261 261 261 261 263 264 264 265 266 265 263 263 263 264 264 266 266 266 266 266 265 264 263 263 262 260 258 256 256 255 255 255 255
256 257 258 259 259 259 259 259 260 260 261 262 262 262 263 263 264 265 265 265 264 263 263 263 264 265 266 266 266 267 267 266 264 262 261 261 259 257 255 255 254 254 254
257 258 258 259 259 259 259 260 260 260 261 262 262 262 263 263 263 265 265 265 265 264 264 265 265 266 266 266 266 267 267 266 265 263 262 261 259 257 255 254 253 253 253
259 259 260 260 260 260 259 260 261 260 261 261 262 262 262 263 263 264 265 265 265 264 265 265 267 267 267 267 266 267 267 266 265 264 262 261 259 257 255 254 253 253 253
Height
5843 5844 5844 5845 5846 5847 5848 5849 5850 5851 5852 5852 5853 5853 5854 5854 5855 5855 5856 5856 5856 5856 5857 5857 5857 5858 5858 5858 5859 5859 5859 5860 5860 5860 5861 5861 5861 5861 5862 5862 5862 5862 5862
5840 5841 5842 5843 5844 5845 5846 5847 5848 5848 5849 5850 5851 5851 5852 5852 5852 5853 5854 5854 5854 5855 5855 5856 5856 5856 5857 5857 5857 5858 5858 5859 5859 5860 5860 5860 5861 5861 5861 5861 5861 5861 5862
5837 5838 5839 5840 5841 5842 5843 5844 5845 5846 5847 5847 5848 5849 5849 5849 5850 5851 5851 5852 5852 5853 5853 5854 5854 5855 5855 5856 5856 5856 5857 5857 5858 5858 5859 5859 5859 5860 5860 5860 5860 5861 5861
5834 5835 5836 5837 5838 5839 5840 5841 5842 5843 5844 5844 5845 5846 5846 5847 5847 5848 5848 5849 5850 5850 5851 5851 5852 5853 5853 5854 5854 5854 5855 5855 5856 5856 5857 5857 5858 5858 5859 5859 5859 5859 5859
5831 5831 5832 5834 5835 5835 5836 5837 5838 5839 5840 5841 5842 5843 5843 5844 5844 5845 5846 5846 5847 5847 5848 5849 5849 5850 5851 5851 5852 5852 5853 5854 5854 5854 5855 5855 5856 5856 5857 5857 5858 5858 5858
5827 5827 5828 5830 5831 5832 5833 5834 5835 5836 5837 5838 5838 5839 5840 5841 5841 5842 5842 5843 5844 5844 5845 5845 5846 5847 5847 5848 5849 5850 5850 5851 5852 5852 5853 5853 5853 5854 5854 5855 5855 5855 5856
5822 5823 5824 5826 5827 5828 5829 5830 5831 5832 5833 5834 5834 5835 5836 5837 5838 5838 5839 5839 5840 5841 5841 5842 5842 5843 5844 5845 5846 5846 5847 5848 5849 5849 5850 5850 5851 5851 5852 5852 5852 5853 5853
5818 5819 5820 5821 5823 5824 5825 5825 5826 5827 5828 5829 5830 5831 5832 5833 5833 5834 5835 5835 5836 5837 5837 5838 5838 5839 5840 5841 5842 5842 5843 5844 5845 5846 5846 5847 5847 5848 5849 5849 5849 5850 5850
5814 5815 5816 5817 5818 5819 5820 5821 5822 5823 5823 5825 5825 5826 5827 5828 5829 5829 5830 5831 5832 5832 5833 5833 5834 5835 5835 5836 5837 5838 5839 5840 5841 5842 5842 5843 5844 5844 5845 5845 5846 5846 5847
5809 5810 5811 5812 5813 5814 5815 5816 5817 5818 5818 5819 5820 5821 5822 5823 5824 5824 5825 5826 5826 5827 5828 5828 5829 5830 5831 5831 5832 5833 5834 5835 5836 5837 5838 5838 5839 5840 5841 5841 5842 5842 5843
5803 5804 5806 5807 5808 5809 5810 5811 5811 5812 5813 5814 5815 5816 5817 5818 5818 5819 5819 5820 5821 5821 5822 5823 5823 5824 5825 5826 5827 5827 5828 5829 5830 5831 5832 5833 5834 5835 5836 5837 5837 5838 5838
5797 5798 5800 5801 5802 5803 5804 5805 5806 5807 5807 5808 5809 5810 5811 5811 5812 5813 5813 5814 5814 5815 5816 5816 5817 5818 5818 5819 5820 5821 5822 5823 5823 5824 5826 5827 5828 5829 5830 5831 5832 5833 5833
5790 5792 5793 5795 5796 5797 5798 5799 5799 5800 5801 5802 5802 5803 5804 5805 5805 5806 5807 5807 5808 5808 5809 5809 5810 5811 5811 5812 5813 5814 5815 5815 5816 5817 5818 5820 5821 5822 5823 5824 5826 5826 5827
5783 5785 5786 5788 5789 5790 5791 5792 5793 5793 5794 5795 5796 5796 5797 5798 5798 5799 5799 5799 5800 5801 5801 5802 5803 5803 5804 5804 5805 5806 5807 5808 5809 5810 5811 5812 5814 5815 5816 5817 5819 5820 5821
5776 5777 5779 5780 5781 5782 5783 5784 5785 5786 5787 5788 5788 5789 5790 5790 5791 5791 5791 5791 5792 5792 5793 5793 5794 5795 5795 5796 5797 5797 5798 5799 5800 5801 5802 5804 5805 5807 5808 5809 5811 5812 5813
5767 5769 5770 5772 5773 5775 5776 5777 5777 5778 5779 5780 5780 5781 5781 5782 5782 5783 5783 5783 5783 5784 5784 5785 5785 5786 5786 5787 5787 5788 5789 5790 5791 5792 5793 5795 5796 5798 5800 5801 5803 5804 5805
5759 5761 5762 5763 5765 5766 5767 5768 5769 5770 5771 5771 5772 5772 5773 5773 5773 5773 5774 5774 5774 5774 5775 5775 5776 5776 5776 5777 5777 5778 5778 5779 5780 5782 5783 5785 5787 5788 5790 5792 5794 5795 5797
5750 5752 5753 5754 5756 5757 5758 5759 5760 5761 5761 5762 5762 5763 5763 5764 5764 5764 5764 5764 5765 5765 5765 5765 5766 5766 5766 5767 5767 5767 5768 5768 5769 5771 5772 5774 5776 5778 5780 5782 5784 5786 5787
5741 5742 5744 5745 5746 5747 5748 5749 5750 5751 5752 5752 5753 5753 5753 5754 5754 5754 5754 5754 5754 5755 5755 5755 5755 5755 5756 5756 5756 5757 5757 5757 5758 5759 5761 5763 5765 5767 5769 5771 5773 5775 5777
5731 5732 5734 5735 5736 5737 5738 5739 5740 5741 5742 5742 5742 5743 5743 5743 5744 5744 5744 5744 5744 5744 5744 5745 5745 5745 5745 5745 5745 5745 5746 5746 5746 5747 5749 5751 5753 5755 5758 5760 5762 5765 5766
5720 5722 5723 5724 5726 5726 5727 5728 5729 5730 5731 5732 5732 5732 5732 5733 5733 5733 5733 5733 5733 5733 5733 5734 5734 5734 5734 5733 5733 5734 5734 5734 5734 5736 5737 5738 5741 5743 5746 5748 5751 5753 5755
5710 5711 5712 5713 5715 5715 5716 5717 5718 5719 5720 5720 5721 5721 5721 5722 5722 5722 5722 5722 5722 5722 5722 5723 5723 5722 5722 5721 5721 5721 5722 5722 5722 5723 5724 5726 5728 5730 5733 5736 5738 5741 5743
5699 5700 5701 5702 5703 5704 5705 5706 5707 5707 5708 5709 5709 5710 5710 5710 5711 5711 5711 5710 5710 5710 5711 5711 5711 5711 5710 5710 5709 5709 5709 5709 5710 5711 5711 5713 5715 5717 5720 5723 5725 5728 5731
5688 5689 5690 5691 5691 5692 5693 5694 5695 5695 5696 5697 5697 5698 5698 5698 5698 5698 5698 5698 5698 5698 5698 5698 5699 5698 5698 5697 5696 5696 5696 5696 5697 5698 5699 5700 5701 5703 5706 5709 5712 5715 5718
5677 5678 5678 5679 5679 5680 5681 5682 5682 5683 5684 5684 5684 5685 5685 5685 5685 5685 5686 5685 5686 5686 5686 5686 5686 5685 5685 5684 5684 5684 5683 5683 5683 5685 5686 5687 5688 5690 5692 5695 5698 5701 5704
5665 5666 5666 5667 5667 5668 5668 5669 5669 5670 5671 5671 5671 5671 5672 5672 5672 5672 5672 5672 5673 5673 5673 5673 5673 5672 5672 5671 5671 5671 5670 5670 5671 5671 5672 5673 5674 5676 5678 5682 5685 5688 5690